Flag for Germany Weather past 2 weeks in Fürstenwalde/Spree, Brandenburg, Germany

Now
48 °F

Light rain. Low clouds.


Feels Like: 45 °F
Forecast: 45 / 55 °F
Wind: 6 mph from West

Location: Lindenberg

Current Time: Oct 22, 2014 at 2:57:07 PM

Latest Report: Oct 22, 2014 at 2:00 PM


Visibility: 3 mi

Pressure: 29.65 "Hg

Humidity: 97%

Dew point: 47 °F

Location of Fürstenwalde/SpreeLocation

Historic Weather in Fürstenwalde/Spree — Graph

°F

Fürstenwalde/Spree temperature yesterday

Maximum temperature yesterday: 58 °F (at 3:00 PM)
Minimum temperature yesterday: 51 °F (at 8:00 AM)
Average temperature yesterday: 54 °F

Past Weeks' High & Low Weather Summary

 TemperatureHumidityPressure
High71 °F (Oct 9, 3:00 PM)100% (Oct 17, 12:00 AM)30.24 "Hg (Oct 17, 12:00 AM)
Low46 °F (Oct 22, 8:00 AM)61% (Oct 10, 3:00 PM)29.44 "Hg (Oct 22, 12:00 AM)
Average57 °F88%29.86 "Hg
* Reported Oct 7 2:00 PM — Oct 22 2:00 PM, Fürstenwalde/Spree, Weather by CustomWeather, © 2014

Note: Actual official high and low records may vary slightly from our data, if they occured in-between our weather recording intervals... More about our weather records

Advertising

Fürstenwalde/Spree weather history for previous 24 hours

 ConditionsComfort  
Time TempWeatherWind HumidityBarometerVisibility
2:00 PM
Oct 22
48 °FLight rain. Low clouds.6 mph97%29.65 "Hg3 mi
1:00 PM48 °FLight rain. Low clouds.6 mph97%29.63 "Hg5 mi
12:00 PM47 °FRain. Low clouds.5 mph98%29.64 "Hg3 mi
10:00 AM46 °FLight rain. Low clouds.6 mph97%29.63 "Hg4 mi
9:00 AM46 °FLight rain. Low clouds.5 mph96%29.62 "Hg5 mi
8:00 AM46 °FLight rain. Low clouds.6 mph96%29.61 "Hg5 mi
7:00 AM46 °FLight rain. Low clouds.6 mph96%29.59 "Hg5 mi
6:00 AM47 °FLight rain. Low clouds.6 mph95%29.58 "Hg5 mi
4:00 AM48 °FLight rain. Low clouds.9 mph96%29.55 "Hg2 mi
3:00 AM50 °FRain. Low clouds.6 mph97%29.50 "Hg2 mi
2:00 AM51 °FRain. Low clouds.8 mph97%29.50 "Hg2 mi
1:00 AM53 °FOvercast.5 mph91%29.47 "Hg9 mi
12:00 AM52 °FLight rain. Overcast.2 mph94%29.44 "Hg6 mi
11:00 PM
Oct 21
52 °FLight rain. Overcast.3 mph92%29.47 "Hg6 mi
10:00 PM53 °FLight rain. Overcast.2 mph88%29.47 "Hg9 mi
9:00 PM53 °FLight rain. Overcast.2 mph86%29.47 "Hg9 mi
8:00 PM53 °FLight rain. Overcast.3 mph84%29.53 "Hg12 mi
7:00 PM54 °FOvercast.5 mph80%29.56 "Hg16 mi
6:00 PM56 °FLight rain. Overcast.5 mph77%29.58 "Hg19 mi
4:00 PM57 °FOvercast.3 mph75%29.63 "Hg19 mi
3:00 PM58 °FOvercast.6 mph73%29.67 "Hg19 mi
2:00 PM57 °FOvercast.6 mph75%29.70 "Hg16 mi
Weather by CustomWeather, © 2014

See weather overviewHow to use our weather pages